Cordova, AK

7:36 AM AKDT on September 19, 2017 (GMT -0800)
Cordova-Smith

Weather History for PACV - May, 2013

Change the Weather History Date:

Sunday, May 19, 2013

  Actual Average Record
Temperature  
Mean Temperature 36 °F -  
Max Temperature 48 °F 52 °F 73 °F (2002)
Min Temperature 26 °F 36 °F 26 °F (2013)
Degree Days  
Heating Degree Days 29    
Moisture  
Dew Point 28 °F    
Average Humidity 68    
Maximum Humidity 96    
Minimum Humidity 47    
Precipitation  
Precipitation 0.04 in - - ()
Sea Level Pressure  
Sea Level Pressure 30.38 in    
Wind  
Wind Speed 3 mph (WNW)    
Max Wind Speed 10 mph    
Max Gust Speed -    
Visibility 10 miles    
Events Rain    
Averages and records for this station are not official NWS values.
T = Trace of Precipitation, MM = Missing Value Source: NWS Daily Summary

Daily Weather History Graph

Daily Weather History Graph

Search for Another Location

Airport or City:

Trip Planner

Search our weather history database for the weather conditions in past years. The results will help you decide how hot, cold, wet, or windy it might be!

Date:

Astronomy

May. 19, 2013 Rise Set
Actual Time 4:50 AM AKDT 10:28 PM AKDT
Civil Twilight 3:39 AM AKDT 11:40 PM AKDT
Nautical Twilight 2:10 AM AKDT 1:06 AM AKDT
Astronomical Twilight Sun does not set Sun does not set
Moon 3:09 PM AKDT 2:58 AM AKDT
Length of Visible Light 20h 00m
Length of Day
17h 38m
Waxing Gibbous, 66% of the Moon is Illuminated
May 19
Waxing Gibbous
May 24
Full
May 31
Last Quarter
Jun 8
New
Jun 16
First Quarter

Hourly Weather History & Observations

Time (AKDT) Temp. Windchill Dew Point Humidity Pressure Visibility Wind Dir Wind Speed Gust Speed Precip Events Conditions
12:53 AM 28.9 °F - 26.1 °F 89% 30.10 in 10.0 mi Calm Calm - N/A   Partly Cloudy
1:53 AM 27.0 °F 23.0 °F 26.1 °F 96% 30.13 in 10.0 mi NNW 3.5 mph - N/A   Partly Cloudy
2:53 AM 27.0 °F - 25.0 °F 92% 30.16 in 10.0 mi Calm Calm - N/A   Partly Cloudy
3:53 AM 27.0 °F - 25.0 °F 92% 30.19 in 10.0 mi Calm Calm - N/A   Partly Cloudy
4:53 AM 26.1 °F - 24.1 °F 92% 30.22 in 10.0 mi Calm Calm - N/A   Partly Cloudy
5:53 AM 27.0 °F - 25.0 °F 92% 30.24 in 10.0 mi Calm Calm - N/A   Scattered Clouds
6:53 AM 30.9 °F - 28.9 °F 92% 30.27 in 10.0 mi Calm Calm - N/A   Scattered Clouds
7:53 AM 37.9 °F 35.5 °F 30.0 °F 73% 30.30 in 10.0 mi SSW 3.5 mph - N/A   Scattered Clouds
8:53 AM 41.0 °F 39.0 °F 28.0 °F 60% 30.33 in 10.0 mi WNW 3.5 mph - N/A   Scattered Clouds
9:53 AM 43.0 °F 40.3 °F 27.0 °F 53% 30.35 in 10.0 mi WNW 4.6 mph - N/A   Scattered Clouds
10:53 AM 45.0 °F - 26.1 °F 48% 30.37 in 10.0 mi Calm Calm - N/A   Overcast
11:53 AM 44.1 °F 41.5 °F 25.0 °F 47% 30.40 in 10.0 mi North 4.6 mph - 0.00 in Rain Light Rain
12:53 PM 45.0 °F 39.7 °F 28.9 °F 53% 30.42 in 10.0 mi West 10.4 mph - 0.00 in   Mostly Cloudy
1:53 PM 43.0 °F 41.3 °F 30.0 °F 60% 30.45 in 10.0 mi South 3.5 mph - 0.01 in Rain Light Rain
2:53 PM 44.1 °F 41.5 °F 30.0 °F 58% 30.47 in 10.0 mi South 4.6 mph - 0.00 in   Overcast
3:53 PM 46.0 °F 41.4 °F 32.0 °F 58% 30.49 in 10.0 mi SW 9.2 mph - N/A   Mostly Cloudy
4:53 PM 46.0 °F 43.1 °F 30.0 °F 54% 30.50 in 10.0 mi Variable 5.8 mph - N/A   Overcast
5:53 PM 43.0 °F 40.3 °F 35.1 °F 74% 30.50 in 10.0 mi SW 4.6 mph - 0.03 in   Overcast
6:53 PM 46.0 °F - 32.0 °F 58% 30.50 in 10.0 mi Calm Calm - N/A   Scattered Clouds
7:53 PM 46.9 °F - 30.0 °F 52% 30.51 in 10.0 mi NW 6.9 mph - N/A   Scattered Clouds
8:53 PM 45.0 °F 41.2 °F 28.9 °F 53% 30.52 in 10.0 mi NW 6.9 mph - N/A   Partly Cloudy
9:53 PM 42.1 °F 38.4 °F 28.0 °F 58% 30.53 in 10.0 mi NNW 5.8 mph - N/A   Clear
10:53 PM 39.9 °F 36.7 °F 28.0 °F 63% 30.55 in 10.0 mi NW 4.6 mph - N/A   Clear
11:53 PM 35.1 °F 31.0 °F 28.0 °F 76% 30.56 in 10.0 mi NNW 4.6 mph - N/A   Clear